TimeCDT,TemperatureF,Dew PointF,Humidity,Sea Level PressureIn,VisibilityMPH,Wind Direction,Wind SpeedMPH,Gust SpeedMPH,PrecipitationIn,Events,Conditions,WindDirDegrees,DateUTC
12:52 AM,54.0,34.0,47,30.24,10.0,NNE,5.8,-,N/A,,Overcast,30,2012-10-05 05:52:00
1:52 AM,53.1,33.1,47,30.24,10.0,NNE,8.1,-,N/A,,Overcast,20,2012-10-05 06:52:00
3:52 AM,50.0,33.1,52,30.23,10.0,NNE,5.8,-,N/A,,Overcast,20,2012-10-05 08:52:00
4:52 AM,50.0,33.1,52,30.23,10.0,NNE,6.9,-,N/A,,Overcast,30,2012-10-05 09:52:00
5:52 AM,48.9,33.1,54,30.25,10.0,NE,8.1,-,N/A,,Overcast,40,2012-10-05 10:52:00
6:52 AM,48.9,32.0,52,30.25,10.0,NE,9.2,-,N/A,,Overcast,50,2012-10-05 11:52:00
7:52 AM,48.0,32.0,54,30.23,10.0,NE,5.8,-,N/A,,Overcast,50,2012-10-05 12:52:00
8:52 AM,48.0,32.0,54,30.25,10.0,NE,8.1,-,N/A,,Overcast,40,2012-10-05 13:52:00
10:52 AM,51.1,32.0,48,30.28,10.0,NNE,6.9,17.3,N/A,,Overcast,20,2012-10-05 15:52:00
12:52 PM,54.0,30.9,41,30.28,10.0,NNE,12.7,20.7,N/A,,Overcast,30,2012-10-05 17:52:00
2:52 PM,55.9,26.1,32,30.24,10.0,NE,12.7,21.9,N/A,,Mostly Cloudy,50,2012-10-05 19:52:00
3:52 PM,55.9,30.0,37,30.23,10.0,NE,13.8,20.7,N/A,,Partly Cloudy,50,2012-10-05 20:52:00
4:52 PM,52.0,30.9,45,30.25,10.0,North,19.6,26.5,N/A,,Clear,10,2012-10-05 21:52:00
5:52 PM,51.1,32.0,48,30.26,10.0,NE,11.5,-,N/A,,Clear,40,2012-10-05 22:52:00
6:52 PM,46.9,30.0,52,30.27,10.0,NNE,8.1,-,N/A,,Scattered Clouds,20,2012-10-05 23:52:00
7:52 PM,43.0,28.9,58,30.30,10.0,NNE,4.6,-,N/A,,Clear,20,2012-10-06 00:52:00
8:52 PM,41.0,28.9,62,30.31,10.0,Calm,Calm,-,N/A,,Clear,0,2012-10-06 01:52:00
9:52 PM,35.1,28.9,78,30.34,10.0,Calm,Calm,-,N/A,,Clear,0,2012-10-06 02:52:00
10:52 PM,37.9,30.9,76,30.34,10.0,Calm,Calm,-,N/A,,Clear,0,2012-10-06 03:52:00
11:52 PM,42.1,33.1,70,30.34,10.0,North,6.9,-,N/A,,Clear,350,2012-10-06 04:52:00